BEL2PF EBBR-LDSP

Flight info

Callsign BEL2PF
Flight time 1h 49m
Altitude 39000
Route SOPOK Y863 OGLOR DCT EMGOD DCT BOMBI T104 HAREM Z74 LAMPU DCT NOMBO Y161 MAH DCT VAVOR DCT RADIZ DCT ALIVO DCT NUPSO
Aircraft A320/M-DE3FGHIJ1LORVWY/H

Departure

Time 2026-05-05 10:11
Airport Brussels Airport (EBBR)

Arrival

Time 2026-05-05 12:00
Airport Split Saint Jerome Airport (LDSP)
Time Latitude Longitude Altitude Speed Heading
2026-05-05 09:46 50.90356 4.48430 120 ft 0 kts 155°
2026-05-05 10:00 50.90373 4.48417 118 ft 4 kts 154°
2026-05-05 10:01 50.90397 4.48398 116 ft 4 kts 151°
2026-05-05 10:01 50.90420 4.48375 116 ft 4 kts 137°
2026-05-05 10:01 50.90433 4.48346 118 ft 4 kts 79°
2026-05-05 10:01 50.90432 4.48338 118 ft 0 kts 65°
2026-05-05 10:03 50.90440 4.48367 118 ft 8 kts 65°
2026-05-05 10:04 50.90476 4.48491 120 ft 16 kts 65°
2026-05-05 10:04 50.90519 4.48638 119 ft 14 kts 65°
2026-05-05 10:04 50.90556 4.48767 118 ft 13 kts 65°
2026-05-05 10:04 50.90597 4.48910 119 ft 14 kts 65°
2026-05-05 10:05 50.90640 4.49059 118 ft 16 kts 66°
2026-05-05 10:05 50.90591 4.49174 122 ft 13 kts 155°
2026-05-05 10:05 50.90515 4.49228 124 ft 11 kts 155°
2026-05-05 10:05 50.90438 4.49285 122 ft 12 kts 155°
2026-05-05 10:06 50.90387 4.49322 122 ft 5 kts 155°
2026-05-05 10:06 50.90343 4.49361 124 ft 9 kts 141°
2026-05-05 10:06 50.90306 4.49408 123 ft 6 kts 149°
2026-05-05 10:06 50.90218 4.49376 125 ft 16 kts 195°
2026-05-05 10:07 50.90140 4.49344 128 ft 7 kts 194°
2026-05-05 10:07 50.90073 4.49319 127 ft 20 kts 195°
2026-05-05 10:07 50.89898 4.49249 138 ft 24 kts 194°
2026-05-05 10:07 50.89770 4.49196 145 ft 16 kts 195°
2026-05-05 10:08 50.89661 4.49149 151 ft 16 kts 195°
2026-05-05 10:08 50.89561 4.49063 156 ft 17 kts 197°
2026-05-05 10:08 50.89461 4.49024 159 ft 11 kts 194°
2026-05-05 10:08 50.89388 4.48996 162 ft 15 kts 187°
2026-05-05 10:09 50.89306 4.49067 167 ft 10 kts 149°
2026-05-05 10:09 50.89216 4.49047 174 ft 18 kts 192°
2026-05-05 10:09 50.89144 4.49082 176 ft 8 kts 87°
2026-05-05 10:09 50.89150 4.49107 176 ft 0 kts 67°
2026-05-05 10:10 50.89150 4.49108 176 ft 2 kts 67°
2026-05-05 10:10 50.89241 4.49492 176 ft 73 kts 69°
2026-05-05 10:10 50.89485 4.50548 176 ft 130 kts 69°
2026-05-05 10:10 50.89845 4.52064 439 ft 153 kts 65°
2026-05-05 10:11 50.90253 4.53622 1135 ft 152 kts 61°
2026-05-05 10:11 50.90713 4.55124 1865 ft 152 kts 60°
2026-05-05 10:11 50.91215 4.56614 2404 ft 158 kts 60°
2026-05-05 10:11 50.91781 4.58219 2754 ft 174 kts 59°
2026-05-05 10:12 50.92412 4.60012 2996 ft 200 kts 62°
2026-05-05 10:12 50.93065 4.62090 3417 ft 221 kts 63°
2026-05-05 10:12 50.93747 4.64398 3951 ft 241 kts 67°
2026-05-05 10:12 50.94264 4.66969 4602 ft 253 kts 72°
2026-05-05 10:13 50.94747 4.69689 5412 ft 259 kts 73°
2026-05-05 10:13 50.95220 4.72464 6284 ft 262 kts 73°
2026-05-05 10:13 50.95660 4.75292 7074 ft 267 kts 82°
2026-05-05 10:13 50.95411 4.78280 7780 ft 278 kts 111°
2026-05-05 10:14 50.94214 4.80714 8587 ft 286 kts 139°
2026-05-05 10:14 50.92562 4.82524 9421 ft 290 kts 144°
2026-05-05 10:14 50.90949 4.84397 10191 ft 294 kts 142°
2026-05-05 10:14 50.89226 4.86365 10479 ft 317 kts 140°
2026-05-05 10:15 50.87480 4.88689 10674 ft 339 kts 136°
2026-05-05 10:15 50.85685 4.91301 10799 ft 362 kts 135°
2026-05-05 10:15 50.83976 4.94349 10934 ft 380 kts 121°
2026-05-05 10:15 50.82914 4.98237 11186 ft 391 kts 105°
2026-05-05 10:16 50.82157 5.02402 11703 ft 397 kts 104°
2026-05-05 10:16 50.81391 5.06612 12337 ft 399 kts 104°
2026-05-05 10:16 50.80616 5.10839 12991 ft 402 kts 105°
2026-05-05 10:16 50.79829 5.15094 13576 ft 406 kts 105°
2026-05-05 10:17 50.79029 5.19390 14136 ft 408 kts 105°
2026-05-05 10:17 50.78226 5.23699 14678 ft 410 kts 105°
2026-05-05 10:17 50.77420 5.28036 15184 ft 413 kts 106°
2026-05-05 10:17 50.76608 5.32414 15624 ft 418 kts 106°
2026-05-05 10:18 50.75787 5.36830 16118 ft 420 kts 107°
2026-05-05 10:18 50.74957 5.41260 16608 ft 422 kts 107°
2026-05-05 10:18 50.74117 5.45720 17015 ft 426 kts 107°
2026-05-05 10:18 50.73269 5.50222 17432 ft 429 kts 107°
2026-05-05 10:19 50.72417 5.54751 17868 ft 431 kts 107°
2026-05-05 10:19 50.71560 5.59301 18234 ft 435 kts 107°
2026-05-05 10:19 50.70695 5.63889 18556 ft 438 kts 108°
2026-05-05 10:19 50.69820 5.68516 18887 ft 441 kts 108°
2026-05-05 10:20 50.68937 5.73166 19234 ft 444 kts 108°
2026-05-05 10:20 50.68047 5.77838 19564 ft 446 kts 108°
2026-05-05 10:20 50.67149 5.82527 19866 ft 448 kts 108°
2026-05-05 10:20 50.66243 5.87241 20172 ft 450 kts 108°
2026-05-05 10:21 50.65331 5.91969 20461 ft 452 kts 108°
2026-05-05 10:21 50.64414 5.96721 20753 ft 454 kts 108°
2026-05-05 10:21 50.63495 6.01483 21038 ft 456 kts 108°
2026-05-05 10:21 50.62572 6.06269 21306 ft 457 kts 108°
2026-05-05 10:22 50.61644 6.11071 21556 ft 460 kts 108°
2026-05-05 10:22 50.60708 6.15892 21819 ft 462 kts 108°
2026-05-05 10:22 50.59763 6.20737 22079 ft 464 kts 108°
2026-05-05 10:22 50.58813 6.25593 22339 ft 465 kts 109°
2026-05-05 10:23 50.57859 6.30462 22592 ft 467 kts 109°
2026-05-05 10:23 50.56900 6.35349 22813 ft 468 kts 109°
2026-05-05 10:23 50.55935 6.40250 23038 ft 470 kts 109°
2026-05-05 10:23 50.54964 6.45164 23256 ft 471 kts 109°
2026-05-05 10:24 50.53991 6.50072 23546 ft 470 kts 109°
2026-05-05 10:24 50.53016 6.54975 23813 ft 469 kts 109°
2026-05-05 10:24 50.52045 6.59866 24075 ft 469 kts 109°
2026-05-05 10:24 50.51071 6.64761 24331 ft 469 kts 109°
2026-05-05 10:25 50.50097 6.69651 24586 ft 469 kts 110°
2026-05-05 10:25 50.49120 6.74532 24844 ft 469 kts 110°
2026-05-05 10:25 50.48135 6.79416 25109 ft 469 kts 110°
2026-05-05 10:25 50.47149 6.84292 25390 ft 469 kts 110°
2026-05-05 10:26 50.46160 6.89167 25689 ft 469 kts 110°
2026-05-05 10:26 50.45170 6.94036 25967 ft 468 kts 110°
2026-05-05 10:26 50.44180 6.98906 26213 ft 469 kts 110°
2026-05-05 10:26 50.43188 7.03786 26460 ft 470 kts 110°
2026-05-05 10:27 50.42195 7.08668 26743 ft 470 kts 110°
2026-05-05 10:27 50.41201 7.13542 27053 ft 470 kts 111°
2026-05-05 10:27 50.40202 7.18413 27352 ft 469 kts 111°
2026-05-05 10:27 50.39199 7.23286 27687 ft 469 kts 111°
2026-05-05 10:28 50.38197 7.28151 28023 ft 469 kts 111°
2026-05-05 10:28 50.37194 7.33011 28339 ft 469 kts 111°
2026-05-05 10:28 50.36192 7.37871 28689 ft 469 kts 111°
2026-05-05 10:28 50.35188 7.42730 28989 ft 469 kts 111°
2026-05-05 10:29 50.34180 7.47587 29293 ft 469 kts 111°
2026-05-05 10:29 50.33168 7.52441 29616 ft 469 kts 111°
2026-05-05 10:29 50.32153 7.57286 29924 ft 469 kts 112°
2026-05-05 10:29 50.31136 7.62131 30214 ft 469 kts 112°
2026-05-05 10:30 50.30117 7.66971 30480 ft 468 kts 112°
2026-05-05 10:30 50.29096 7.71807 30755 ft 468 kts 112°
2026-05-05 10:30 50.28077 7.76637 31042 ft 468 kts 112°
2026-05-05 10:30 50.27058 7.81461 31325 ft 467 kts 112°
2026-05-05 10:31 50.26039 7.86278 31596 ft 466 kts 112°
2026-05-05 10:31 50.25020 7.91083 31885 ft 466 kts 113°
2026-05-05 10:31 50.23998 7.95879 32166 ft 465 kts 113°
2026-05-05 10:31 50.22971 8.00676 32441 ft 465 kts 113°
2026-05-05 10:32 50.21945 8.05456 32711 ft 465 kts 113°
2026-05-05 10:32 50.21262 8.08630 32908 ft 465 kts 114°
2026-05-05 10:32 50.20231 8.13408 33187 ft 465 kts 114°
2026-05-05 10:32 50.19203 8.18184 33462 ft 464 kts 114°
2026-05-05 10:33 50.18173 8.22964 33733 ft 464 kts 114°
2026-05-05 10:33 50.17145 8.27738 33973 ft 464 kts 114°
2026-05-05 10:33 50.16114 8.32511 34184 ft 465 kts 114°
2026-05-05 10:33 50.15080 8.37279 34422 ft 464 kts 114°
2026-05-05 10:34 50.14043 8.42047 34666 ft 464 kts 114°
2026-05-05 10:34 50.13003 8.46802 34820 ft 464 kts 114°
2026-05-05 10:34 50.10894 8.56379 34864 ft 471 kts 114°
2026-05-05 10:35 50.08756 8.66050 34867 ft 472 kts 114°
2026-05-05 10:35 50.06470 8.75605 34865 ft 466 kts 122°
2026-05-05 10:36 50.02881 8.83789 34863 ft 453 kts 139°
2026-05-05 10:36 49.98320 8.90437 34865 ft 449 kts 143°
2026-05-05 10:37 49.93691 8.96955 34864 ft 449 kts 143°
2026-05-05 10:37 49.89062 9.03469 34863 ft 449 kts 143°
2026-05-05 10:38 49.84453 9.09946 34853 ft 449 kts 143°
2026-05-05 10:38 49.79826 9.16425 34872 ft 448 kts 143°
2026-05-05 10:39 49.75207 9.22875 34880 ft 447 kts 143°
2026-05-05 10:39 49.70597 9.29298 34874 ft 446 kts 143°
2026-05-05 10:40 49.65983 9.35698 34874 ft 445 kts 143°
2026-05-05 10:40 49.61280 9.41870 34874 ft 440 kts 151°
2026-05-05 10:41 49.56073 9.46710 34850 ft 437 kts 154°
2026-05-05 10:41 49.50847 9.51486 34858 ft 437 kts 154°
2026-05-05 10:42 49.43002 9.58644 34856 ft 437 kts 154°
2026-05-05 10:43 49.37770 9.63393 34869 ft 437 kts 154°
2026-05-05 10:43 49.32763 9.68734 34862 ft 444 kts 141°
2026-05-05 10:44 49.28380 9.75444 34872 ft 445 kts 140°
2026-05-05 10:44 49.23994 9.82133 34856 ft 445 kts 140°
2026-05-05 10:45 49.19588 9.88802 34858 ft 446 kts 140°
2026-05-05 10:45 49.15186 9.95473 34860 ft 446 kts 140°
2026-05-05 10:46 49.10806 10.02098 34859 ft 446 kts 140°
2026-05-05 10:46 49.06365 10.08800 34858 ft 446 kts 140°
2026-05-05 10:47 49.01889 10.15296 34870 ft 443 kts 142°
2026-05-05 10:47 48.97340 10.21627 34854 ft 443 kts 142°
2026-05-05 10:48 48.92793 10.27957 34865 ft 443 kts 142°
2026-05-05 10:48 48.88276 10.34339 34862 ft 443 kts 142°
2026-05-05 10:49 48.83765 10.40714 34867 ft 443 kts 142°
2026-05-05 10:49 48.79363 10.47283 34864 ft 445 kts 139°
2026-05-05 10:50 48.75149 10.54167 34838 ft 446 kts 137°
2026-05-05 10:50 48.70942 10.61075 34839 ft 446 kts 137°
2026-05-05 10:51 48.66677 10.67904 34833 ft 446 kts 138°
2026-05-05 10:51 48.62379 10.74689 34835 ft 447 kts 138°
2026-05-05 10:52 48.58084 10.81472 34835 ft 447 kts 138°
2026-05-05 10:52 48.53813 10.88290 34823 ft 447 kts 137°
2026-05-05 10:53 48.49555 10.95124 34821 ft 447 kts 137°
2026-05-05 10:53 48.45266 11.01908 34824 ft 447 kts 138°
2026-05-05 10:54 48.40932 11.08628 34825 ft 447 kts 139°
2026-05-05 10:54 48.36597 11.15338 34830 ft 447 kts 139°
2026-05-05 10:55 48.32260 11.22056 34836 ft 448 kts 139°
2026-05-05 10:55 48.27915 11.28765 34835 ft 449 kts 137°
2026-05-05 10:56 48.24292 11.36472 34835 ft 456 kts 124°
2026-05-05 10:56 48.21122 11.44727 34837 ft 457 kts 124°
2026-05-05 10:57 48.17934 11.52971 34822 ft 458 kts 124°
2026-05-05 10:57 48.14729 11.61211 34807 ft 458 kts 124°
2026-05-05 10:58 48.11518 11.69456 34811 ft 459 kts 124°
2026-05-05 10:58 48.08295 11.77706 34813 ft 459 kts 124°
2026-05-05 10:59 48.05069 11.85946 34813 ft 459 kts 124°
2026-05-05 10:59 48.01835 11.94176 34801 ft 459 kts 124°
2026-05-05 11:00 47.98589 12.02394 34795 ft 459 kts 124°
2026-05-05 11:00 47.95340 12.10598 34810 ft 459 kts 124°
2026-05-05 11:01 47.91400 12.17962 34805 ft 452 kts 141°
2026-05-05 11:01 47.86614 12.23990 34804 ft 451 kts 143°
2026-05-05 11:02 47.81813 12.29992 34805 ft 451 kts 143°
2026-05-05 11:02 47.77001 12.35992 34799 ft 451 kts 143°
2026-05-05 11:03 47.72199 12.41981 34816 ft 451 kts 143°
2026-05-05 11:03 47.67392 12.47962 34817 ft 451 kts 143°
2026-05-05 11:04 47.62578 12.53925 34826 ft 451 kts 144°
2026-05-05 11:04 47.57623 12.59596 34824 ft 449 kts 147°
2026-05-05 11:05 47.52559 12.65001 34818 ft 450 kts 147°
2026-05-05 11:05 47.47491 12.70411 34828 ft 449 kts 147°
2026-05-05 11:06 47.42454 12.75882 34858 ft 449 kts 147°
2026-05-05 11:06 47.37431 12.81367 34862 ft 449 kts 147°
2026-05-05 11:07 47.32407 12.86842 34887 ft 449 kts 147°
2026-05-05 11:07 47.27372 12.92288 34875 ft 449 kts 147°
2026-05-05 11:08 47.22366 12.97686 34878 ft 449 kts 147°
2026-05-05 11:08 47.17323 13.03116 34890 ft 450 kts 147°
2026-05-05 11:09 47.12240 13.08575 34912 ft 450 kts 147°
2026-05-05 11:09 47.07213 13.13954 34916 ft 450 kts 147°
2026-05-05 11:10 47.02158 13.19362 34934 ft 450 kts 147°
2026-05-05 11:10 46.97092 13.24771 34928 ft 451 kts 147°
2026-05-05 11:11 46.92022 13.30169 34964 ft 450 kts 147°
2026-05-05 11:11 46.86959 13.35548 34969 ft 450 kts 147°
2026-05-05 11:12 46.81859 13.40944 34984 ft 449 kts 147°
2026-05-05 11:12 46.76789 13.46294 34969 ft 450 kts 147°
2026-05-05 11:13 46.71750 13.51600 34971 ft 450 kts 147°
2026-05-05 11:13 46.66667 13.56935 34972 ft 450 kts 147°
2026-05-05 11:14 46.62405 13.61410 34989 ft 451 kts 147°
2026-05-05 11:14 46.57308 13.66745 34996 ft 452 kts 147°
2026-05-05 11:15 46.52210 13.72078 34996 ft 452 kts 147°
2026-05-05 11:15 46.47096 13.77408 34997 ft 452 kts 147°
2026-05-05 11:16 46.41977 13.82732 34988 ft 453 kts 147°
2026-05-05 11:16 46.36843 13.88052 35012 ft 454 kts 148°
2026-05-05 11:17 46.31701 13.93357 35009 ft 454 kts 147°
2026-05-05 11:17 46.26556 13.98668 35018 ft 455 kts 147°
2026-05-05 11:18 46.21405 14.03984 35014 ft 455 kts 147°
2026-05-05 11:18 46.16247 14.09280 35012 ft 455 kts 147°
2026-05-05 11:19 46.11086 14.14573 35020 ft 455 kts 147°
2026-05-05 11:19 46.05923 14.19851 35015 ft 456 kts 148°
2026-05-05 11:20 46.00738 14.25144 35013 ft 457 kts 147°
2026-05-05 11:20 45.95544 14.30432 35019 ft 458 kts 148°
2026-05-05 11:21 45.90333 14.35719 35008 ft 458 kts 147°
2026-05-05 11:21 45.85122 14.40990 35025 ft 459 kts 147°
2026-05-05 11:22 45.79910 14.46262 35040 ft 459 kts 147°
2026-05-05 11:22 45.74695 14.51531 35043 ft 458 kts 147°
2026-05-05 11:23 45.69474 14.56774 35052 ft 458 kts 147°
2026-05-05 11:23 45.64255 14.62002 35054 ft 458 kts 147°
2026-05-05 11:24 45.59038 14.67229 35042 ft 458 kts 148°
2026-05-05 11:24 45.53809 14.72443 35045 ft 459 kts 148°
2026-05-05 11:25 45.48459 14.77388 35047 ft 458 kts 152°
2026-05-05 11:25 45.42919 14.81839 35058 ft 457 kts 154°
2026-05-05 11:26 45.37352 14.86203 35056 ft 457 kts 153°
2026-05-05 11:26 45.31829 14.90676 35047 ft 457 kts 153°
2026-05-05 11:27 45.26321 14.95212 35053 ft 457 kts 152°
2026-05-05 11:27 45.20811 14.99732 35046 ft 458 kts 153°
2026-05-05 11:28 45.15287 15.04218 35039 ft 458 kts 153°
2026-05-05 11:28 45.09753 15.08691 35040 ft 458 kts 153°
2026-05-05 11:29 45.04210 15.13175 35050 ft 459 kts 153°
2026-05-05 11:29 44.98666 15.17662 35054 ft 459 kts 153°
2026-05-05 11:30 44.93117 15.22137 35051 ft 460 kts 153°
2026-05-05 11:30 44.87559 15.26599 35060 ft 460 kts 153°
2026-05-05 11:31 44.81995 15.31050 35062 ft 460 kts 153°
2026-05-05 11:31 44.76434 15.35500 35056 ft 460 kts 153°
2026-05-05 11:32 44.70868 15.39951 35049 ft 460 kts 153°
2026-05-05 11:32 44.65291 15.44388 35058 ft 461 kts 153°
2026-05-05 11:33 44.59709 15.48826 35065 ft 461 kts 153°
2026-05-05 11:33 44.54126 15.53248 35087 ft 460 kts 153°
2026-05-05 11:34 44.48556 15.57653 35083 ft 459 kts 154°
2026-05-05 11:34 44.43059 15.61997 34841 ft 441 kts 154°
2026-05-05 11:34 44.40420 15.64080 34175 ft 430 kts 154°
2026-05-05 11:35 44.37847 15.66105 33368 ft 421 kts 154°
2026-05-05 11:35 44.35315 15.68091 32566 ft 413 kts 154°
2026-05-05 11:35 44.32833 15.70039 31791 ft 405 kts 154°
2026-05-05 11:35 44.30401 15.71952 31024 ft 398 kts 153°
2026-05-05 11:36 44.28002 15.73838 30253 ft 393 kts 153°
2026-05-05 11:36 44.25641 15.75689 29398 ft 387 kts 153°
2026-05-05 11:36 44.23307 15.77516 28530 ft 382 kts 153°
2026-05-05 11:36 44.20999 15.79319 27707 ft 378 kts 154°
2026-05-05 11:37 44.18718 15.81098 26874 ft 374 kts 154°
2026-05-05 11:37 44.16457 15.82857 26037 ft 371 kts 154°
2026-05-05 11:37 44.14220 15.84597 25252 ft 367 kts 154°
2026-05-05 11:37 44.11992 15.86310 24473 ft 363 kts 155°
2026-05-05 11:38 44.09766 15.87940 23726 ft 360 kts 156°
2026-05-05 11:38 44.07549 15.89516 22842 ft 356 kts 157°
2026-05-05 11:38 44.05351 15.91067 21845 ft 356 kts 157°
2026-05-05 11:38 44.03098 15.92650 20489 ft 368 kts 156°
2026-05-05 11:39 44.00778 15.94282 19119 ft 380 kts 156°
2026-05-05 11:39 43.98391 15.95972 17634 ft 390 kts 156°
2026-05-05 11:39 43.95950 15.97709 16007 ft 399 kts 155°
2026-05-05 11:39 43.93458 15.99487 14429 ft 406 kts 155°
2026-05-05 11:40 43.90991 16.01255 13117 ft 402 kts 155°
2026-05-05 11:40 43.88505 16.03037 11894 ft 391 kts 155°
2026-05-05 11:40 43.86108 16.04745 10835 ft 385 kts 155°
2026-05-05 11:40 43.83763 16.06407 10379 ft 383 kts 154°
2026-05-05 11:41 43.81404 16.08080 10178 ft 361 kts 155°
2026-05-05 11:41 43.79281 16.09594 10061 ft 327 kts 155°
2026-05-05 11:41 43.77387 16.10947 10070 ft 296 kts 155°
2026-05-05 11:41 43.75606 16.12216 10072 ft 283 kts 156°
2026-05-05 11:42 43.73852 16.13457 10079 ft 277 kts 157°
2026-05-05 11:42 43.72136 16.14663 10079 ft 277 kts 157°
2026-05-05 11:42 43.70426 16.15864 10077 ft 275 kts 157°
2026-05-05 11:42 43.68713 16.17070 10083 ft 278 kts 157°
2026-05-05 11:43 43.67012 16.18265 9986 ft 272 kts 156°
2026-05-05 11:43 43.65321 16.19454 9861 ft 272 kts 156°
2026-05-05 11:43 43.63642 16.20635 9731 ft 270 kts 156°
2026-05-05 11:43 43.61961 16.21791 9593 ft 268 kts 161°
2026-05-05 11:44 43.60199 16.22486 9464 ft 263 kts 169°
2026-05-05 11:44 43.58410 16.23101 9362 ft 266 kts 168°
2026-05-05 11:44 43.56615 16.23721 9231 ft 265 kts 168°
2026-05-05 11:44 43.54836 16.24336 9104 ft 261 kts 169°
2026-05-05 11:45 43.53077 16.24946 8974 ft 262 kts 168°
2026-05-05 11:45 43.51301 16.25558 8844 ft 264 kts 167°
2026-05-05 11:45 43.49514 16.26172 8716 ft 264 kts 167°
2026-05-05 11:45 43.47743 16.26781 8577 ft 259 kts 168°
2026-05-05 11:46 43.46007 16.27379 8456 ft 256 kts 167°
2026-05-05 11:46 43.44264 16.27977 8330 ft 259 kts 167°
2026-05-05 11:46 43.42518 16.28576 8201 ft 256 kts 168°
2026-05-05 11:46 43.40798 16.29167 8073 ft 254 kts 167°
2026-05-05 11:47 43.39091 16.29752 7945 ft 253 kts 168°
2026-05-05 11:47 43.37359 16.30245 7765 ft 259 kts 178°
2026-05-05 11:47 43.35579 16.29896 7407 ft 259 kts 190°
2026-05-05 11:47 43.33787 16.29565 6771 ft 260 kts 185°
2026-05-05 11:48 43.30225 16.29083 5421 ft 254 kts 185°
2026-05-05 11:48 43.28496 16.28834 5066 ft 247 kts 185°
2026-05-05 11:48 43.26798 16.28433 4981 ft 250 kts 199°
2026-05-05 11:49 43.25322 16.27146 4986 ft 256 kts 223°
2026-05-05 11:49 43.24421 16.25031 4988 ft 264 kts 251°
2026-05-05 11:49 43.24369 16.22493 4988 ft 274 kts 281°
2026-05-05 11:49 43.25260 16.20174 4987 ft 282 kts 311°
2026-05-05 11:50 43.26920 16.18740 4989 ft 287 kts 344°
2026-05-05 11:50 43.28893 16.18665 4992 ft 286 kts 17°
2026-05-05 11:50 43.30746 16.19627 4994 ft 286 kts 24°
2026-05-05 11:50 43.32587 16.20640 4991 ft 280 kts 24°
2026-05-05 11:51 43.34283 16.21739 4991 ft 259 kts 35°
2026-05-05 11:51 43.35659 16.23178 4995 ft 242 kts 46°
2026-05-05 11:51 43.36929 16.24724 4999 ft 245 kts 45°
2026-05-05 11:51 43.38209 16.26278 5008 ft 246 kts 45°
2026-05-05 11:52 43.39488 16.27829 5006 ft 245 kts 46°
2026-05-05 11:52 43.40767 16.29378 5001 ft 245 kts 45°
2026-05-05 11:52 43.42045 16.30928 5008 ft 245 kts 45°
2026-05-05 11:52 43.43324 16.32480 5009 ft 245 kts 45°
2026-05-05 11:53 43.44170 16.33508 5003 ft 246 kts 46°
2026-05-05 11:53 43.45453 16.35070 4996 ft 247 kts 44°
2026-05-05 11:53 43.46750 16.36652 4755 ft 252 kts 45°
2026-05-05 11:53 43.48084 16.38279 4091 ft 259 kts 45°
2026-05-05 11:54 43.49550 16.39696 3593 ft 257 kts 25°
2026-05-05 11:54 43.51244 16.40254 3083 ft 246 kts
2026-05-05 11:54 43.52839 16.40072 2976 ft 216 kts 344°
2026-05-05 11:54 43.54095 16.39245 2901 ft 189 kts 319°
2026-05-05 11:55 43.54871 16.37913 3008 ft 167 kts 294°
2026-05-05 11:55 43.55357 16.36482 3028 ft 161 kts 286°
2026-05-05 11:55 43.55647 16.35036 2958 ft 154 kts 271°
2026-05-05 11:55 43.55378 16.33774 2907 ft 132 kts 213°
2026-05-05 11:56 43.54564 16.33394 2643 ft 125 kts 178°
2026-05-05 11:56 43.53732 16.33669 2277 ft 121 kts 151°
2026-05-05 11:56 43.53173 16.34522 2093 ft 124 kts 120°
2026-05-05 11:56 43.53026 16.35734 1988 ft 134 kts 92°
2026-05-05 11:57 43.53105 16.37029 2115 ft 138 kts 92°
2026-05-05 11:57 43.53283 16.38333 2082 ft 141 kts 78°
2026-05-05 11:57 43.53934 16.39405 1872 ft 155 kts 34°
2026-05-05 11:57 43.54954 16.39370 1591 ft 153 kts 324°
2026-05-05 11:58 43.55575 16.38174 1167 ft 158 kts 282°
2026-05-05 11:58 43.55805 16.36758 1087 ft 148 kts 278°
2026-05-05 11:58 43.55994 16.35384 934 ft 144 kts 273°
2026-05-05 11:58 43.55961 16.34042 730 ft 138 kts 254°
2026-05-05 11:59 43.55595 16.32826 447 ft 134 kts 229°
2026-05-05 11:59 43.55019 16.31833 238 ft 133 kts 228°
2026-05-05 11:59 43.54465 16.30822 66 ft 131 kts 229°
2026-05-05 11:59 43.53948 16.29896 73 ft 102 kts 232°
2026-05-05 12:00 43.53708 16.29474 79 ft 13 kts 203°
2026-05-05 12:00 43.53693 16.29508 73 ft 0 kts 83°
2026-05-05 12:00 43.53695 16.29526 72 ft 4 kts 83°
2026-05-05 12:00 43.53696 16.29535 74 ft 0 kts 83°
2026-05-05 12:01 43.53697 16.29553 75 ft 8 kts 83°
2026-05-05 12:01 43.53638 16.29592 68 ft 10 kts 197°
2026-05-05 12:02 43.53600 16.29636 66 ft 7 kts 116°
2026-05-05 12:02 43.53585 16.29694 65 ft 6 kts 101°
2026-05-05 12:02 43.53584 16.29703 66 ft 0 kts 102°